TimePDT,TemperatureF,Dew PointF,Humidity,Sea Level PressureIn,VisibilityMPH,Wind Direction,Wind SpeedMPH,Gust SpeedMPH,PrecipitationIn,Events,Conditions,WindDirDegrees,DateUTC
12:53 AM,46.9,41.0,80,30.16,10.0,Calm,Calm,-,N/A,,Clear,0,2012-10-18 07:53:00
1:53 AM,43.0,39.9,89,30.17,10.0,Calm,Calm,-,N/A,,Clear,0,2012-10-18 08:53:00
2:53 AM,43.0,39.0,86,30.16,10.0,Calm,Calm,-,N/A,,Clear,0,2012-10-18 09:53:00
3:53 AM,43.0,39.0,86,30.14,10.0,Calm,Calm,-,N/A,,Clear,0,2012-10-18 10:53:00
4:53 AM,41.0,39.0,93,30.12,10.0,Calm,Calm,-,N/A,,Clear,0,2012-10-18 11:53:00
5:53 AM,39.9,37.0,89,30.13,10.0,Calm,Calm,-,N/A,,Clear,0,2012-10-18 12:53:00
6:53 AM,39.9,37.0,89,30.12,10.0,Calm,Calm,-,N/A,,Clear,0,2012-10-18 13:53:00
7:53 AM,37.0,35.1,93,30.12,10.0,Calm,Calm,-,N/A,,Partly Cloudy,0,2012-10-18 14:53:00
8:53 AM,43.0,39.0,86,30.11,10.0,Calm,Calm,-,N/A,,Clear,0,2012-10-18 15:53:00
9:53 AM,46.9,41.0,80,30.11,10.0,Calm,Calm,-,N/A,,Clear,0,2012-10-18 16:53:00
10:53 AM,51.1,42.1,71,30.08,10.0,Calm,Calm,-,N/A,,Clear,0,2012-10-18 17:53:00
11:53 AM,55.9,41.0,57,30.06,10.0,Calm,Calm,-,N/A,,Clear,0,2012-10-18 18:53:00
12:53 PM,61.0,42.1,50,30.04,10.0,Calm,Calm,-,N/A,,Clear,0,2012-10-18 19:53:00
1:53 PM,66.0,39.9,38,30.01,10.0,Calm,Calm,-,N/A,,Clear,0,2012-10-18 20:53:00
2:53 PM,71.1,39.0,31,29.98,10.0,Calm,Calm,-,N/A,,Clear,0,2012-10-18 21:53:00
3:53 PM,75.0,39.0,27,29.97,10.0,Calm,Calm,-,N/A,,Clear,0,2012-10-18 22:53:00
4:53 PM,75.9,39.0,26,29.96,10.0,Calm,Calm,-,N/A,,Clear,0,2012-10-18 23:53:00
5:53 PM,73.0,39.9,30,29.96,10.0,Calm,Calm,-,N/A,,Clear,0,2012-10-19 00:53:00
6:53 PM,64.9,46.0,50,29.98,10.0,South,4.6,-,N/A,,Clear,190,2012-10-19 01:53:00
7:53 PM,63.0,46.0,54,29.99,10.0,SSW,5.8,-,N/A,,Clear,200,2012-10-19 02:53:00
8:53 PM,60.1,46.9,62,30.00,5.0,North,3.5,-,N/A,,Haze,360,2012-10-19 03:53:00
9:53 PM,55.9,46.0,69,30.01,10.0,Calm,Calm,-,N/A,,Clear,0,2012-10-19 04:53:00
10:53 PM,55.9,46.0,69,30.01,10.0,South,6.9,-,N/A,,Clear,180,2012-10-19 05:53:00
11:53 PM,50.0,45.0,83,30.03,10.0,ENE,4.6,-,N/A,,Clear,70,2012-10-19 06:53:00